SB KEPS @ AMSAT $ORB14163.O Orbital Elements 14163.OSCAR
HR AMSAT ORBITAL ELEMENTS FOR OSCAR SATELLITES FROM WA5QGD FORT WORTH,TX June 12, 2014 BID: ORB14163.O TO ALL RADIO AMATEURS BT
Satellite: AO-07 Catalog number: 07530 Epoch time: 14162.86886368 Element set: 987 Inclination: 101.4707 deg RA of node: 144.8755 deg Eccentricity: 0.0011530 Arg of perigee: 307.0687 deg Mean anomaly: 116.5711 deg Mean motion: 12.53605308 rev/day Decay rate: -4.4e-07 rev/day^2 Epoch rev: 81085 Checksum: 305
Satellite: FO-29 Catalog number: 24278 Epoch time: 14163.11546073 Element set: 393 Inclination: 098.5117 deg RA of node: 177.6735 deg Eccentricity: 0.0349526 Arg of perigee: 310.9071 deg Mean anomaly: 087.3775 deg Mean motion: 13.53024580 rev/day Decay rate: -2.0e-07 rev/day^2 Epoch rev: 87998 Checksum: 331
Satellite: SO-33 Catalog number: 25509 Epoch time: 14162.41697137 Element set: 769 Inclination: 031.4297 deg RA of node: 193.0788 deg Eccentricity: 0.0349435 Arg of perigee: 063.8228 deg Mean anomaly: 058.0361 deg Mean motion: 14.29548251 rev/day Decay rate: 1.74e-06 rev/day^2 Epoch rev: 81632 Checksum: 326
Satellite: RS-22 Catalog number: 27939 Epoch time: 14163.31603288 Element set: 570 Inclination: 097.8088 deg RA of node: 337.7028 deg Eccentricity: 0.0014228 Arg of perigee: 120.2127 deg Mean anomaly: 240.0480 deg Mean motion: 14.65206366 rev/day Decay rate: 6.68e-06 rev/day^2 Epoch rev: 57201 Checksum: 296
Satellite: VO-52 Catalog number: 28650 Epoch time: 14162.63017732 Element set: 762 Inclination: 097.5595 deg RA of node: 167.8745 deg Eccentricity: 0.0025699 Arg of perigee: 172.7795 deg Mean anomaly: 187.3796 deg Mean motion: 14.85480172 rev/day Decay rate: 1.271e-05 rev/day^2 Epoch rev: 49240 Checksum: 353
Satellite: HO-68 Catalog number: 36122 Epoch time: 14163.16965161 Element set: 672 Inclination: 100.2488 deg RA of node: 215.2001 deg Eccentricity: 0.0007187 Arg of perigee: 248.2659 deg Mean anomaly: 111.7693 deg Mean motion: 13.16316113 rev/day Decay rate: -4.3e-07 rev/day^2 Epoch rev: 21577 Checksum: 281
Satellite: AO-73 Catalog number: 39444 Epoch time: 14162.67341696 Element set: 165 Inclination: 097.7697 deg RA of node: 233.5100 deg Eccentricity: 0.0060976 Arg of perigee: 261.6417 deg Mean anomaly: 097.7924 deg Mean motion: 14.78289775 rev/day Decay rate: 1.091e-05 rev/day^2 Epoch rev: 2865 Checksum: 353
/EX SB KEPS @ AMSAT $ORB14163.D Orbital Elements 14163.MICROS
HR AMSAT ORBITAL ELEMENTS FOR THE MICROSATS FROM WA5QGD FORT WORTH,TX June 12, 2014 BID: ORB14163.D TO ALL RADIO AMATEURS BT
Satellite: UO-11 Catalog number: 14781 Epoch time: 14162.22383846 Element set: 515 Inclination: 097.8528 deg RA of node: 222.4674 deg Eccentricity: 0.0008799 Arg of perigee: 190.7608 deg Mean anomaly: 169.3418 deg Mean motion: 14.81601302 rev/day Decay rate: 5.16e-06 rev/day^2 Epoch rev: 62708 Checksum: 317
Satellite: AO-16 Catalog number: 20439 Epoch time: 14161.81278999 Element set: 42 Inclination: 098.5068 deg RA of node: 099.2687 deg Eccentricity: 0.0011209 Arg of perigee: 172.3912 deg Mean anomaly: 241.3409 deg Mean motion: 14.32357688 rev/day Decay rate: 1.01e-06 rev/day^2 Epoch rev: 27357 Checksum: 318
Satellite: LO-19 Catalog number: 20442 Epoch time: 14162.41781118 Element set: 980 Inclination: 098.4774 deg RA of node: 100.5346 deg Eccentricity: 0.0012421 Arg of perigee: 160.5699 deg Mean anomaly: 199.5961 deg Mean motion: 14.32560114 rev/day Decay rate: 8.1e-07 rev/day^2 Epoch rev: 27385 Checksum: 300
Satellite: AO-27 Catalog number: 22825 Epoch time: 14163.09542650 Element set: 688 Inclination: 098.6614 deg RA of node: 109.2030 deg Eccentricity: 0.0007437 Arg of perigee: 318.1837 deg Mean anomaly: 169.9883 deg Mean motion: 14.29721203 rev/day Decay rate: 9.9e-07 rev/day^2 Epoch rev: 8005 Checksum: 314
Satellite: IO-26 Catalog number: 22826 Epoch time: 14162.08735469 Element set: 444 Inclination: 098.6556 deg RA of node: 108.4207 deg Eccentricity: 0.0007940 Arg of perigee: 312.8158 deg Mean anomaly: 047.2356 deg Mean motion: 14.30021307 rev/day Decay rate: 8.7e-07 rev/day^2 Epoch rev: 8004 Checksum: 291
Satellite: GO-32 Catalog number: 25397 Epoch time: 14162.81834666 Element set: 367 Inclination: 098.4678 deg RA of node: 121.0064 deg Eccentricity: 0.0000980 Arg of perigee: 032.8541 deg Mean anomaly: 025.0258 deg Mean motion: 14.23445380 rev/day Decay rate: 3.6e-07 rev/day^2 Epoch rev: 82710 Checksum: 293
Satellite: NO-44 Catalog number: 26931 Epoch time: 14162.79987984 Element set: 623 Inclination: 067.0526 deg RA of node: 052.3492 deg Eccentricity: 0.0006347 Arg of perigee: 283.0891 deg Mean anomaly: 076.9501 deg Mean motion: 14.30119276 rev/day Decay rate: 6.9e-07 rev/day^2 Epoch rev: 66283 Checksum: 330
Satellite: SO-50 Catalog number: 27607 Epoch time: 14163.19910210 Element set: 417 Inclination: 064.5563 deg RA of node: 247.5524 deg Eccentricity: 0.0046979 Arg of perigee: 012.2523 deg Mean anomaly: 347.9709 deg Mean motion: 14.73773599 rev/day Decay rate: 4.39e-06 rev/day^2 Epoch rev: 61674 Checksum: 329
Satellite: CO-55 Catalog number: 27844 Epoch time: 14162.51241837 Element set: 944 Inclination: 098.6975 deg RA of node: 171.3664 deg Eccentricity: 0.0008437 Arg of perigee: 293.5831 deg Mean anomaly: 187.0963 deg Mean motion: 14.21508760 rev/day Decay rate: 1.71e-06 rev/day^2 Epoch rev: 56777 Checksum: 341
Satellite: CO-57 Catalog number: 27848 Epoch time: 14162.51650558 Element set: 885 Inclination: 098.7067 deg RA of node: 171.0775 deg Eccentricity: 0.0008368 Arg of perigee: 300.8432 deg Mean anomaly: 182.4310 deg Mean motion: 14.21195449 rev/day Decay rate: 1.47e-06 rev/day^2 Epoch rev: 56769 Checksum: 335
Satellite: AO-51 Catalog number: 28375 Epoch time: 14162.86112185 Element set: 861 Inclination: 098.2498 deg RA of node: 109.9512 deg Eccentricity: 0.0083055 Arg of perigee: 009.4416 deg Mean anomaly: 350.8312 deg Mean motion: 14.41387938 rev/day Decay rate: 2.29e-06 rev/day^2 Epoch rev: 52313 Checksum: 311
Satellite: CP3 Catalog number: 31129 Epoch time: 14162.46431406 Element set: 768 Inclination: 097.9330 deg RA of node: 140.7356 deg Eccentricity: 0.0098977 Arg of perigee: 029.6591 deg Mean anomaly: 085.0251 deg Mean motion: 14.54685628 rev/day Decay rate: 9.05e-06 rev/day^2 Epoch rev: 37920 Checksum: 325
Satellite: CO-65 Catalog number: 32785 Epoch time: 14162.45037384 Element set: 972 Inclination: 097.6999 deg RA of node: 213.9359 deg Eccentricity: 0.0013684 Arg of perigee: 201.4238 deg Mean anomaly: 286.5160 deg Mean motion: 14.85292012 rev/day Decay rate: 1.026e-05 rev/day^2 Epoch rev: 33117 Checksum: 320
Satellite: PRISM Catalog number: 33493 Epoch time: 14163.30934918 Element set: 1 Inclination: 098.2487 deg RA of node: 338.7508 deg Eccentricity: 0.0019150 Arg of perigee: 099.4689 deg Mean anomaly: 260.8779 deg Mean motion: 14.89414432 rev/day Decay rate: 2.875e-05 rev/day^2 Epoch rev: 29145 Checksum: 338
Satellite: SOHLA-1 Catalog number: 33496 Epoch time: 14163.16467714 Element set: 374 Inclination: 098.1698 deg RA of node: 284.0829 deg Eccentricity: 0.0005233 Arg of perigee: 251.8217 deg Mean anomaly: 229.3979 deg Mean motion: 14.70809481 rev/day Decay rate: 4.16e-06 rev/day^2 Epoch rev: 28877 Checksum: 340
Satellite: TISAT-1 Catalog number: 36799 Epoch time: 14163.30170618 Element set: 262 Inclination: 098.0173 deg RA of node: 255.2597 deg Eccentricity: 0.0013133 Arg of perigee: 344.7765 deg Mean anomaly: 015.3077 deg Mean motion: 14.85649604 rev/day Decay rate: 1.942e-05 rev/day^2 Epoch rev: 21199 Checksum: 313
Satellite: STUDSAT Catalog number: 36801 Epoch time: 14162.17761666 Element set: 837 Inclination: 098.0375 deg RA of node: 262.0508 deg Eccentricity: 0.0007383 Arg of perigee: 317.3037 deg Mean anomaly: 074.2958 deg Mean motion: 14.96603370 rev/day Decay rate: 7.554e-05 rev/day^2 Epoch rev: 21223 Checksum: 303
Satellite: ALMASAT-1 Catalog number: 38078 Epoch time: 14162.30394891 Element set: 50 Inclination: 069.4700 deg RA of node: 073.4914 deg Eccentricity: 0.0594262 Arg of perigee: 039.6012 deg Mean anomaly: 091.0747 deg Mean motion: 14.49557526 rev/day Decay rate: 4.0840e-04 rev/day^2 Epoch rev: 12078 Checksum: 304
Satellite: XATCOBEO Catalog number: 38082 Epoch time: 14163.36520049 Element set: 304 Inclination: 069.4402 deg RA of node: 329.7784 deg Eccentricity: 0.0206036 Arg of perigee: 341.6702 deg Mean anomaly: 092.2793 deg Mean motion: 15.54464019 rev/day Decay rate: 2.05238e-03 rev/day^2 Epoch rev: 12364 Checksum: 290
Satellite: CUBEBUG-1 Catalog number: 39153 Epoch time: 14162.94050765 Element set: 200 Inclination: 098.0434 deg RA of node: 243.2540 deg Eccentricity: 0.0018520 Arg of perigee: 011.6555 deg Mean anomaly: 348.5088 deg Mean motion: 14.77708059 rev/day Decay rate: 1.013e-05 rev/day^2 Epoch rev: 6078 Checksum: 280
Satellite: ESTCUBE-1 Catalog number: 39161 Epoch time: 14163.25359334 Element set: 185 Inclination: 098.0967 deg RA of node: 244.1870 deg Eccentricity: 0.0011442 Arg of perigee: 057.2155 deg Mean anomaly: 303.0163 deg Mean motion: 14.69992016 rev/day Decay rate: 8.32e-06 rev/day^2 Epoch rev: 5887 Checksum: 300
/EX SB KEPS @ AMSAT $ORB14163.W Orbital Elements 14163.WEATHER
HR AMSAT ORBITAL ELEMENTS FOR WEATHER SATELLITES FROM WA5QGD FORT WORTH,TX June 12, 2014 BID: ORB14163.W TO ALL RADIO AMATEURS BT
Satellite: MET-2/21 Catalog number: 22782 Epoch time: 14162.71505028 Element set: 79 Inclination: 082.5478 deg RA of node: 177.6469 deg Eccentricity: 0.0020809 Arg of perigee: 280.4076 deg Mean anomaly: 126.9422 deg Mean motion: 13.83737517 rev/day Decay rate: 1.2e-07 rev/day^2 Epoch rev: 4936 Checksum: 311
Satellite: OKEAN-4 Catalog number: 23317 Epoch time: 14162.83659168 Element set: 557 Inclination: 082.5394 deg RA of node: 072.9514 deg Eccentricity: 0.0022265 Arg of perigee: 115.8100 deg Mean anomaly: 356.1032 deg Mean motion: 14.85526515 rev/day Decay rate: 8.50e-06 rev/day^2 Epoch rev: 6231 Checksum: 286
